Regional Weather Roundup
Issued by NWS Kansas City/Pleasant Hill, MO

Home | Current Version | Previous Version | Graphics & Text | Print | Product List | Glossary Off
Versions: 1 2 3 4 5 6 7 8 9 10 11 12 13 14 15 16 17 18 19 20 21 22 23 24 25 26 27 28 29 30 31 32 33 34 35 36 37 38 39 40 41 42 43 44 45 46 47 48 49 50

000
ASUS43 KEAX 311110
RWREAX

WEATHER ROUNDUP FOR EASTERN KANSAS AND NORTHWEST MISSOURI
NATIONAL WEATHER SERVICE KANSAS CITY/PLEASANT HILL MO
600 AM CDT MON AUG 31 2015

KSZ040-057-103>105-MOZ028-029-037-043-311200-
...KANSAS CITY METROPOLITAN AREA...

CITY           SKY/WX    TMP DP  RH WIND       PRES   REMARKS
K.C. INTL      CLEAR     70  68  93 SE7       29.97R
K.C. DOWNTOWN  CLEAR     74  70  87 S5        29.95S
LEES SUMMIT    CLEAR     72  69  90 SE5       29.98R
OLATHE - IXD   CLEAR     69  69 100 S5        29.98R FOG
OLATHE - OJC   CLEAR     69  69 100 S5        29.97R FOG
LAWRENCE       CLOUDY    64  63  96 CALM      29.96S FOG

$$

MOZ001>008-011>017-020>025-030>033-038>040-044>046-053-054-311200-
...NORTHERN AND CENTRAL MISSOURI...

CITY           SKY/WX    TMP DP  RH WIND       PRES   REMARKS
ST. JOSEPH     FOG       65  64  97 CALM      29.96S VSB 1
MOSBY          SUNNY     70  70 100 CALM      29.97S FOG
WARRENSBURG    CLEAR     70  68  94 SE3       29.98R
WHITEMAN AFB   CLEAR     71  70  97 S6        29.98R
CLINTON        CLEAR     72  70  94 CALM      29.99R
SEDALIA        CLEAR     70  67  90 S7        30.00R
WARSAW         NOT AVBL
CHILLICOTHE      N/A     71  70  96 CALM      29.99R
KIRKSVILLE     CLEAR     67  65  93 SE3       30.01S FOG

$$

MOZ041-047>049-056>058-063>065-088>090-097-311200-
...EASTERN AND SOUTHERN MISSOURI...

CITY           SKY/WX    TMP DP  RH WIND       PRES   REMARKS
ST. LOUIS INTL PTCLDY    75  69  81 S3        30.04R
SPIRIT OF STL  CLOUDY    70  69  97 CALM      30.02R FOG
COLUMBIA       PTCLDY    71  69  93 SE7       30.01R FOG
JEFFERSON CITY CLOUDY    70  69  97 SE5       30.01R FOG
ROLLA          CLEAR     71  66  84 S12       30.03R
OSAGE BEACH    MOCLDY    72  66  83 SE5       30.02R
SPRINGFIELD    CLEAR     71  67  87 SE10      30.02R
BRANSON        CLEAR     68  66  94 CALM      30.05R
JOPLIN         CLEAR     70  67  90 S3        29.99R
WEST PLAINS    CLOUDY    70  67  90 CALM      30.08R

$$

IAZ060-094-KSZ022-034>040-054-083-096-NEZ052-066-093-311200-
...KANSAS...SOUTHEAST NEBRASKA AND IOWA...

CITY           SKY/WX    TMP DP  RH WIND       PRES   REMARKS
TOPEKA         FOG       66  65  96 CALM      29.96S VSB 1/4
MANHATTAN      PTCLDY    63  63 100 CALM      29.94S FOG
EMPORIA        FOG       62  62 100 SE5       29.97R VSB 1/4
CHANUTE        CLEAR     69  68  96 SE6       29.97R FOG
WICHITA        CLEAR     70  67  90 SE7       29.95R FOG
OMAHA          CLEAR     66  65  96 SE3       29.94S FOG
LINCOLN        FOG       64  62  93 CALM      29.95S VSB 3/4
FALLS CITY     FOG       65  65 100 SE3       29.95S VSB 3/4
LAMONI         CLEAR     69  67  93 SE6       29.98S
DES MOINES     CLEAR     69  65  86 SE8       29.97S

$$



USA.gov is the U.S. government's official web portal to all federal, state and local government web resources and services.